Back to catalog

STARLINK-1351

AliveCommunicationsVLEO
NORAD 45697·PAYLOAD·🇺🇸 United States

Launched Jun 4, 2020 from Cape Canaveral Space Force Station

Loading…

Next Passes (next 24 hours)

TLE

FreshSource: CelesTrak SupGP

Epoch: Sep 15, 2026, 01:20 UTC

1 45697C 20035AS  26258.05604167  .00068752  00000+0  40588-3 0  2586
2 45697  53.0339 170.6051 0005793 102.3948 241.5086 15.77392753    13

Track STARLINK-1351 in real time with AllMySat

Download on the App Store